Satellite: FAST1-2
Catalog number: 37227
Epoch time:      11026.45731043
Element set:    0061
Inclination:      071.9741 deg
RA of node:       351.7150 deg
Eccentricity:    0.0017752
Arg of perigee:   190.1612 deg
Mean anomaly:     169.9179 deg
Mean motion:   14.76386874 rev/day
Decay rate:       1.25e-06 rev/day^2
Epoch rev:           00994
Checksum:              297

/EX
SB KEPS @ AMSAT  $ORB11027.W
Orbital Elements  11027.WEATHER

HR AMSAT ORBITAL ELEMENTS FOR WEATHER SATELLITES
FROM WA5QGD FORT WORTH,TX January 27, 2011
Send Subscribe/unsubscribe to KEPS at http://www.amsat.org/mailman/listinfo/kep
BID: ORB11027.W
TO ALL RADIO AMATEURS BT

Satellite: NOAA-10
Catalog number: 16969
Epoch time:      11027.17923591
Element set:     375
Inclination:      098.6350 deg
RA of node:       058.7801 deg
Eccentricity:    0.0011505
Arg of perigee:   278.4579 deg
Mean anomaly:     081.5297 deg
Mean motion:   14.27441989 rev/day
Decay rate:        2.7e-07 rev/day^2
Epoch rev:           26753
Checksum:              333

Satellite: NOAA-11
Catalog number: 19531
Epoch time:      11027.19379137
Element set:     379
Inclination:      098.7568 deg
RA of node:       117.3087 deg
Eccentricity:    0.0010474
Arg of perigee:   229.2546 deg
Mean anomaly:     130.7682 deg
Mean motion:   14.14901711 rev/day
Decay rate:      -1.49e-06 rev/day^2
Epoch rev:           15281
Checksum:              305

Satellite: NOAA-12
Catalog number: 21263
Epoch time:      11026.74253643
Element set:    0873
Inclination:      098.7578 deg
RA of node:       044.7874 deg
Eccentricity:    0.0011623
Arg of perigee:   236.3337 deg
Mean anomaly:     123.6732 deg
Mean motion:   14.25680154 rev/day
Decay rate:        1.9e-07 rev/day^2
Epoch rev:           02425
Checksum:              291

Satellite: MET-3/5
Catalog number: 21655
Epoch time:      11026.90826407
Element set:    0024
Inclination:      082.5598 deg
RA of node:       150.5864 deg
Eccentricity:    0.0014168
Arg of perigee:   146.4097 deg
Mean anomaly:     213.7960 deg
Mean motion:   13.17028598 rev/day
Decay rate:        5.1e-07 rev/day^2
Epoch rev:           93512
Checksum:              305

Satellite: MET-2/21
Catalog number: 22782
Epoch time:      11027.67996387
Element set:       2
Inclination:      082.5456 deg
RA of node:       074.3623 deg
Eccentricity:    0.0023638
Arg of perigee:   130.5221 deg
Mean anomaly:     229.8014 deg
Mean motion:   13.83651811 rev/day
Decay rate:       -9.0e-07 rev/day^2
Epoch rev:           87912
Checksum:              296

Satellite: OKEAN-4
Catalog number: 23317
Epoch time:      11026.87714245
Element set:    0458
Inclination:      082.5421 deg
RA of node:       145.0696 deg
Eccentricity:    0.0020938
Arg of perigee:   221.7560 deg
Mean anomaly:     138.2068 deg
Mean motion:   14.82929146 rev/day
Decay rate:       1.97e-06 rev/day^2
Epoch rev:           87960
Checksum:              314

Satellite: NOAA-14
Catalog number: 23455
Epoch time:      11026.77836314
Element set:    0361
Inclination:      098.8612 deg
RA of node:       110.7806 deg
Eccentricity:    0.0008954
Arg of perigee:   326.0173 deg
Mean anomaly:     034.0437 deg
Mean motion:   14.13805230 rev/day
Decay rate:       -3.4e-07 rev/day^2
Epoch rev:           82909
Checksum:              283

Satellite: NOAA-15
Catalog number: 25338
Epoch time:      11027.44384592
Element set:     688
Inclination:      098.6428 deg
RA of node:       015.6131 deg
Eccentricity:    0.0011271
Arg of perigee:   138.8220 deg
Mean anomaly:     221.3836 deg
Mean motion:   14.24879372 rev/day
Decay rate:       -7.2e-07 rev/day^2
Epoch rev:           66068
Checksum:              308

Satellite: RESURS
Catalog number: 25394
Epoch time:      11026.89753442
Element set:    0710
Inclination:      098.2987 deg
RA of node:       037.7070 deg
Eccentricity:    0.0000914
Arg of perigee:   329.2176 deg
Mean anomaly:     030.8949 deg
Mean motion:   14.24222102 rev/day
Decay rate:       -1.4e-07 rev/day^2
Epoch rev:           65219
Checksum:              286

Satellite: FENGYUN1
Catalog number: 25730
Epoch time:      11026.88498944
Element set:    0243
Inclination:      098.8044 deg
RA of node:       351.2745 deg
Eccentricity:    0.0022869
Arg of perigee:   349.9385 deg
Mean anomaly:     010.1360 deg
Mean motion:   14.08487591 rev/day
Decay rate:      -1.93e-06 rev/day^2
Epoch rev:           60317
Checksum:              317

Satellite: OKEAN-0
Catalog number: 25860
Epoch time:      11026.93935329
Element set:    0215
Inclination:      097.8646 deg
RA of node:       357.4340 deg
Eccentricity:    0.0001905
Arg of perigee:   077.0081 deg
Mean anomaly:     283.1341 deg
Mean motion:   14.73704098 rev/day
Decay rate:        5.6e-07 rev/day^2
Epoch rev:           61985
Checksum:              302

Satellite: NOAA-16
Catalog number: 26536
Epoch time:      11027.40828136
Element set:     168
Inclination:      099.1553 deg
RA of node:       054.9940 deg
Eccentricity:    0.0011202
Arg of perigee:   070.3013 deg
Mean anomaly:     289.9391 deg
Mean motion:   14.12596077 rev/day
Decay rate:       2.97e-06 rev/day^2
Epoch rev:           53348
Checksum:              304

